This demonstration page uses our WeatherBlox Daily Observations layout. Learn more.

Left ArrowRight Arrow

53.62937, 11.41316

Hourly Observations for April 4, 2022

Temp ( °F °C ) Dew Point ( °F °C ) Humidity (%) Winds ( mph kmh ) Pressure ( in mb ) Visibility ( mi km ) Precip ( " mm )
12:20 am 00:20 Mostly Cloudy 39 4 34 1 81 81 WSW 12 19 29.95 1014 30 48 N/A
12:50 am 00:50 Mostly Cloudy 39 4 34 1 81 81 WSW 10 17 29.92 1013 30 48 N/A
1:20 am 01:20 Mostly Cloudy 37 3 34 1 87 87 WSW 12 19 29.92 1013 30 48 N/A
1:50 am 01:50 Mostly Cloudy 37 3 34 1 87 87 WSW 9 15 29.92 1013 30 48 N/A
2:20 am 02:20 Mostly Cloudy 37 3 34 1 87 87 WSW 9 15 29.89 1012 30 48 N/A
2:50 am 02:50 Mostly Cloudy 37 3 34 1 87 87 WSW 12 19 29.89 1012 30 48 N/A
3:20 am 03:20 Mostly Cloudy 37 3 32 0 81 81 WSW 9 15 29.86 1011 30 48 N/A
3:50 am 03:50 Mostly Clear 37 3 32 0 81 81 VRB 7 11 29.86 1011 30 48 N/A
4:20 am 04:20 Mostly Clear 37 3 32 0 81 81 SW 8 13 29.83 1010 30 48 N/A
4:50 am 04:50 Mostly Clear 37 3 32 0 81 81 SW 8 13 29.83 1010 30 48 N/A
5:20 am 05:20 Mostly Cloudy 37 3 32 0 81 81 WSW 8 13 29.80 1009 30 48 N/A
5:50 am 05:50 Mostly Cloudy 37 3 32 0 81 81 VRB 7 11 29.77 1008 30 48 N/A
6:20 am 06:20 Mostly Clear 37 3 32 0 81 81 SW 8 13 29.77 1008 30 48 N/A
6:50 am 06:50 Mostly Sunny 37 3 30 -1 75 75 VRB 7 11 29.74 1007 7 11 N/A
10:20 am 10:20 Mostly Cloudy with Light Rain 37 3 34 1 87 87 VRB 13 20 29.59 1002 30 48 N/A
10:50 am 10:50 Mostly Cloudy with Light Rain 37 3 34 1 87 87 SW 13 20 29.56 1001 4 7 N/A
11:20 am 11:20 Mostly Cloudy with Light Rain 37 3 36 2 93 93 SSW 14 22 29.53 1000 30 48 N/A
11:50 am 11:50 Mostly Cloudy with Light Rain 37 3 36 2 93 93 VRB 13 20 29.50 999 30 48 N/A
12:20 pm 12:20 Mostly Cloudy with Light Rain 39 4 36 2 87 87 SW 13 20 29.50 999 6 9 N/A
12:50 pm 12:50 Mostly Cloudy with Light Rain 39 4 36 2 87 87 VRB 14 22 29.47 998 4 7 N/A
1:20 pm 13:20 Mostly Cloudy with Light Rain 37 3 36 2 93 93 VRB 13 20 29.47 998 4 7 N/A
1:50 pm 13:50 Mostly Cloudy with Light Rain 39 4 36 2 87 87 SW 13 20 29.44 997 6 9 N/A
2:20 pm 14:20 Mostly Cloudy with Light Rain 39 4 37 3 93 93 VRB 13 20 29.41 996 30 48 N/A
2:50 pm 14:50 Mostly Cloudy with Light Rain 39 4 37 3 93 93 SW 13 20 29.38 995 30 48 N/A
3:20 pm 15:20 Mostly Cloudy with Light Rain 41 5 37 3 87 87 VRB 14 22 29.38 995 30 48 N/A
3:50 pm 15:50 Mostly Cloudy with Light Rain 41 5 39 4 93 93 SW 16 26 29.35 994 30 48 N/A
4:20 pm 16:20 Mostly Cloudy with Light Rain 43 6 39 4 87 87 WSW 16 26 29.35 994 30 48 N/A
4:50 pm 16:50 Mostly Cloudy with Light Rain 43 6 41 5 93 93 SW 13 20 29.33 993 30 48 N/A
5:20 pm 17:20 Mostly Cloudy with Light Rain 43 6 41 5 93 93 SW 15 24 29.33 993 30 48 N/A
5:50 pm 17:50 Mostly Cloudy with Light Rain 45 7 41 5 87 87 WSW 15 24 29.32 993 3 4 N/A
6:20 pm 18:20 Cloudy with Drizzle 45 7 43 6 93 93 WSW 18 30 29.32 993 3 5 N/A
6:50 pm 18:50 Mostly Cloudy with Light Rain 46 8 43 6 87 87 W 17 28 29.32 993 30 48 N/A
7:20 pm 19:20 Mostly Cloudy with Light Rain 45 7 43 6 93 93 W 16 26 29.32 993 3 4 N/A
7:50 pm 19:50 Mostly Cloudy with Light Rain 45 7 43 6 93 93 W 16 26 29.32 993 30 48 N/A
8:20 pm 20:20 Mostly Cloudy 45 7 43 6 93 93 W 14 22 29.35 994 4 7 N/A
8:50 pm 20:50 Mostly Cloudy 45 7 39 4 81 81 W 20 31 29.35 994 30 48 N/A
9:20 pm 21:20 Mostly Cloudy 45 7 41 5 87 87 W 15 24 29.35 994 30 48 N/A
9:50 pm 21:50 Mostly Cloudy 45 7 39 4 81 81 W 15 24 29.38 995 30 48 N/A
10:20 pm 22:20 Mostly Cloudy 43 6 36 2 76 76 WNW 17 28 29.38 995 30 48 N/A
10:50 pm 22:50 Mostly Cloudy 43 6 36 2 76 76 W 14 22 29.38 995 30 48 N/A
11:20 pm 23:20 Mostly Cloudy 43 6 36 2 76 76 W 15 24 29.41 996 30 48 N/A
11:50 pm 23:50 Partly Cloudy 41 5 36 2 81 81 W 15 24 29.41 996 30 48 N/A

Powered by AerisWeather